Location: Dos Palmas
(32.4468°N, 116.8732°W)
Time: 00:55:00
(UTC+00:00)

Cosmos 1408 Rocket - Pass Details

Date: 20 June 2021
Orbit: 600 x 632 km, 82.6° (Epoch: 27 July)

Event Time Altitude Azimuth Distance (km) Brightness Sun altitude
Exits shadow 11:06:05 32° 219° (SW) 1,071 4.2 -17.0°
Maximum altitude 11:07:50 53° 278° (W) 774 3.8 -16.7°
Drops below altitude 10° 11:12:12 10° 356° (N) 2,015 6.7 -16.0°
Sets 11:14:30 0° 1° (N) 2,928 7.7 -15.7°
